Regional Weather Roundup
Issued by NWS Upton, NY

Current Version | Previous Version | Graphics & Text | Print | Product List | Glossary Off
Versions: 1 2 3 4 5 6 7 8 9 10 11 12 13 14 15 16 17 18 19 20 21 22 23 24 25 26 27 28 29 30 31 32 33 34 35 36 37 38 39 40 41 42 43 44 45 46 47 48 49 50

000
ASUS41 KOKX 290808
RWROKX

REGIONAL WEATHER ROUNDUP
NATIONAL WEATHER SERVICE NEW YORK NY
400 AM EDT THU SEP 29 2016

NOTE: "FAIR" INDICATES FEW OR NO CLOUDS BELOW 12,000 FEET WITH NO
SIGNIFICANT WEATHER AND/OR OBSTRUCTIONS TO VISIBILITY.

NYZ071-072-176-178-NJZ106-104-290900-
NEW YORK CITY METRO AREA

CITY           SKY/WX    TMP DP  RH WIND       PRES   REMARKS
Central Park   CLOUDY    60  54  80 E10G18    30.28R
LaGuardia APRT CLOUDY    62  56  80 E26G33    30.26R
Kennedy INTL   CLOUDY    62  56  80 NE21G26   30.26R
Newark/Liberty CLOUDY    60  55  83 NE14      30.25R
Bronx Bot Gard   N/A     57  50  77 NE14      30.28R
Wall St Helipt CLOUDY    63  59  88 NE16G24   30.25R
Teterboro      CLOUDY    59  51  75 NE10G18   30.26R
$$

NYZ177-179-078>081-290900-
LONG ISLAND NEW YORK

CITY           SKY/WX    TMP DP  RH WIND       PRES   REMARKS
Farmingdale    CLOUDY    60  57  89 NE14G20   30.26R
MacArthur/ISP  CLOUDY    59  57  93 NE12      30.27R
Shirley        CLOUDY    60  56  86 NE9       30.28R
Riverhead      NOT AVBL
Westhampton    CLOUDY    61  55  81 NE20G28   30.29R
Southampton      N/A     61  57  88 NE12      30.24R
Bridgehampton    N/A     59  55  88 E2        30.12F
East Hampton   CLOUDY    60  56  86 NE14G25   30.27S
Montauk          N/A     61  57  87 NE17G28   30.29S
$$

NYZ052-065-067-290900-
HUDSON VALLEY

CITY           SKY/WX    TMP DP  RH WIND       PRES   REMARKS
White Plains   CLOUDY    57  51  80 NE9       30.28R
Newburgh       CLOUDY    57  52  82 E8        30.31R
Montgomery     CLOUDY    57  50  77 NE9       30.30R
Poughkeepsie   CLOUDY    57  49  74 N6        30.30S
Albany         CLOUDY    50  47  89 N3        30.35S
$$

NJZ001-105-106-008-010-013-015-019>022-104-290900-
NEW JERSEY

CITY           SKY/WX    TMP DP  RH WIND       PRES   REMARKS
Newark/Liberty CLOUDY    60  55  83 NE14      30.25R
Teterboro      CLOUDY    59  51  75 NE10G18   30.26R
Caldwell       CLOUDY    57  54  89 NE9       30.27R
Morristown     CLOUDY    57  54  88 NE6       30.27R
Somerville     CLOUDY    57  55  93 NE7       30.24R FOG
Linden         NOT AVBL
Sussex         CLOUDY    54  53  97 N8        30.29R
Abdover          N/A     55  53  93 VRB5      30.27S
Trenton        LGT RAIN  58  56  93 NE13      30.22F FOG
Millville      HVY RAIN  65  65 100 NE10      30.16R FOG
Atlantic City  LGT RAIN  65  63  93 E20G26    30.17R
Wrightstown    LGT RAIN  61  61 100 NE12      30.18S FOG
Toms River     LGT RAIN  63  62  97 E13       30.22R FOG
Belmar         LGT RAIN  62  61  96 NE13      30.24R FOG
$$

PAZ047>061-062-071-290900-
EASTERN PENNSYLVANIA

CITY           SKY/WX    TMP DP  RH WIND       PRES   REMARKS
Philadelphia   LGT RAIN  61  59  93 NE12G25   30.20R
Allentown      LGT RAIN  57  54  88 E12       30.23R
Scranton       CLOUDY    56  52  86 NE9       30.23S
$$

CTZ002-004>006-009-010-012-RIZ004-006-007-MAZ004-011-015-290900-
SOUTHERN NEW ENGLAND
 IN CT

CITY           SKY/WX    TMP DP  RH WIND       PRES   REMARKS
Bradley INTL   CLOUDY    55  48  77 N9        30.36R
Hartford       CLOUDY    56  49  77 N14       30.35R
Danbury        CLOUDY    55  48  77 NE13      30.31R
Wtrbury/Oxford   N/A     54  46  76 NE20      30.31R
Bridgeport     CLOUDY    60  51  72 NE16G22   30.30R
Meriden        CLOUDY    58  49  72 NE10G17   30.32S
New Haven      CLOUDY    58  51  78 N16G23    30.30R
Chester        CLOUDY    57  52  82 NE10G17   30.31R
Groton         CLOUDY    61  53  75 NE15      30.29S
Wilimantic     CLOUDY    58  51  78 NE8       30.35R

 IN RI

CITY           SKY/WX    TMP DP  RH WIND       PRES   REMARKS
Providence     CLOUDY    59  52  77 NE15G23   30.33R
Block Island   CLOUDY    60  57  89 NE17G29   30.29R
Westerly       CLOUDY    60  53  77 NE10      30.30S
 IN MA

CITY           SKY/WX    TMP DP  RH WIND       PRES   REMARKS
Boston         CLOUDY    57  51  80 NE21      30.35F
Worcester      CLOUDY    51  46  83 NE12G21   30.36R
Westfield      CLOUDY    56  49  77 N7        30.37R
Provincetown   CLOUDY    58  54  86 NE22G29   30.34R
Nantucket      CLOUDY    59  57  93 NE21G28   30.27R FOG
$$

ANZ330-335-338-340-345-350-353-355-290900-
COASTAL MARINE OBSERVATIONS


STATION/POSITION TIME  SKY/WX   TEMP    WIND        PRES    VSBY  WAVE
                                AIR SEA DIR/SP/G                  HT/PER
                 (UTC)          (F)     (DEG/KT/KT) (MB)    (MI)  (FT/S)
NY HARB ENTRANCE 0750            64 70   60/ 25/ 31 1022.5          8/ 8
20S FIRE ISLAND  0750            64 69   70/ 25/ 29 1022.7         10/ 7
GREAT SOUTH BAY  0730            62 67   70/ 17/ 25   N/A
23 SSW MONTAUK P 0750            63 67   50/ 25/ 31 1024.0          8/ 7
15 E BARNEGAT LI 0730               70                N/A          10/ 8
HUDSON CANYON    0650            66 68              1021.1          9/ 8
KINGS POINT      0736            60 71              1024.4
EXECUTION ROCKS  0745            63      50/ 21/ 27   N/A
CENTRAL LI SOUND 0730            62 71   50/ 19/ 23   N/A           3/ 5
EASTERN LI SOUND NOT AVBL
ROBBINS REEF     0748            61      60/ 19/ 25 1024.3
$$


>>>>>>>>>>>>>>>>>>>>>>>>>>>> KEY <<<<<<<<<<<<<<<<<<<<<<<<<<<
>                                                          <
>     SKY/WX - Sky Condition/Present Weather               <
>     TMP    - Temperature in Fahrenheit                   <
>     DP     - Dew Point in Fahrenheit                     <
>     RH     - Relative Humidity in Percent                <
>     WIND   - Direction (from) and Speed in MPH           <
>     PRES   - Mean Sea Level Pressure (inches of Hg)      <
>     WCI    - Wind Chill Index                            <
>     VSB    - VISIBILITY IN MILES                         <
>     HX     - HEAT INDEX                                  <
>     TC     - TEMPERATURE IN CELSIUS                      <
>     VRB    - VARIABLE WIND DIRECTION                     <
>                                                          <
>>>>>>>>>>>>>>>>>>>>>>>>>>>> KEY <<<<<<<<<<<<<<<<<<<<<<<<<<<




USA.gov is the U.S. government's official web portal to all federal, state and local government web resources and services.